Location: Lakeview Terrace
(41.4931°N, 81.7101°W)
Time: 20:55:57
(UTC+00:00)

FengYun 1-2 T - Pass Details

Date: 29 October 2020
Orbit: 846 x 882 km, 98.7° (Epoch: 03 December)

Event Time Altitude Azimuth Distance (km) Brightness Sun altitude
Rises 22:55:41 0° 156° (SSE) 3,468 7.3 -6.4°
Reaches altitude 10° 22:58:04 10° 154° (SSE) 2,531 6.6 -6.8°
Maximum altitude 23:03:39 66° 73° (ENE) 954 4.3 -7.9°
Drops below altitude 10° 23:09:15 10° 352° (N) 2,533 6.7 -8.9°
Sets 23:11:39 0° 350° (N) 3,471 7.4 -9.3°
